Terminal Aerodrome Forecast
Issued by NWS Aberdeen, SD

Home | Current Version | Previous Version | Text Only | Print | Product List | Glossary On
Versions: 1 2 3 4 5 6 7 8 9 10 11 12 13 14 15 16 17 18 19 20 21 22 23 24 25 26 27 28 29 30 31 32 33 34 35 36 37 38 39 40
000
FTAK31 PAFA 191953 AAA
TAFABR
TAF AMD
PABR 191953Z 1920/2018 04014KT 3SM BR VCSH SCT002 OVC012
      TEMPO 1920/1924 1SM BR OVC002
     FM200600 06012KT 6SM BR SCT002 OVC015=

USA.gov is the U.S. government's official web portal to all federal, state and local government web resources and services.